Solenzara, France

1:01 PM CEST on March 26, 2017 (GMT +0200)
Solenzara

Weather History for LFKS - October, 2013

Change the Weather History Date:

Thursday, October 31, 2013

  Actual Average (LFKJ) Record (LFKJ)
Temperature  
Mean Temperature 63 °F -  
Max Temperature 69 °F 68 °F 77 °F (2005)
Min Temperature 57 °F 51 °F 44 °F (1997)
Degree Days  
Heating Degree Days 2    
Growing Degree Days 13 (Base 50)    
Moisture  
Dew Point 60 °F    
Average Humidity 88    
Maximum Humidity 100    
Minimum Humidity 73    
Precipitation  
Precipitation 0.87 in - - ()
Sea Level Pressure  
Sea Level Pressure 30.10 in    
Wind  
Wind Speed 5 mph ()    
Max Wind Speed 10 mph    
Max Gust Speed -    
Visibility 5.4 miles    
Events Rain , Thunderstorm    
Averages and records for this station are not official NWS values.
T = Trace of Precipitation, MM = Missing Value Source: Averaged Metar Reports

Daily Weather History Graph

Daily Weather History Graph

Search for Another Location

Airport or City:

Trip Planner

Search our weather history database for the weather conditions in past years. The results will help you decide how hot, cold, wet, or windy it might be!

Date:

Astronomy

Oct. 31, 2013 Rise Set
Actual Time 6:53 AM CET 5:17 PM CET
Civil Twilight 6:24 AM CET 5:46 PM CET
Nautical Twilight 5:51 AM CET 6:19 PM CET
Astronomical Twilight 5:19 AM CET 6:51 PM CET
Moon 3:23 AM CET (10/31) 3:29 PM CET (10/31)
Length of Visible Light 11h 21m
Length of Day
10h 24m
Waning Crescent, 11% of the Moon is Illuminated
Oct 31
Waning Crescent
Nov 3
New
Nov 10
First Quarter
Nov 17
Full
Nov 25
Last Quarter

Hourly Weather History & Observations

Time (CET) Temp. Dew Point Humidity Pressure Visibility Wind Dir Wind Speed Gust Speed Precip Events Conditions
12:00 AM 62.6 °F 57.2 °F 82% 30.04 in 6.2 mi West 6.9 mph - N/A   Unknown
12:30 AM 62.6 °F 57.2 °F 82% 30.04 in 6.2 mi Variable 3.5 mph - N/A   Partly Cloudy
1:00 AM 60.8 °F 57.2 °F 88% 30.04 in 6.2 mi West 4.6 mph - N/A   Partly Cloudy
1:30 AM 62.6 °F 57.2 °F 82% 30.04 in 6.2 mi WNW 4.6 mph - N/A   Scattered Clouds
2:00 AM 62.6 °F 57.2 °F 82% 30.04 in 6.2 mi WNW 5.8 mph - N/A   Partly Cloudy
2:30 AM 62.6 °F 57.2 °F 82% 30.04 in 6.2 mi WNW 4.6 mph - N/A Thunderstorm Scattered Clouds
3:00 AM 62.6 °F 57.2 °F 82% 30.04 in 6.2 mi Variable 3.5 mph - N/A Thunderstorm Mostly Cloudy
3:30 AM 62.6 °F 59.0 °F 88% 30.04 in 6.2 mi Variable 2.3 mph - N/A Thunderstorm Mostly Cloudy
4:00 AM 62.6 °F 59.0 °F 88% 30.04 in 6.2 mi West 5.8 mph - N/A Rain Light Rain
4:30 AM 64.4 °F 62.6 °F 94% 30.04 in 0.7 mi NNW 9.2 mph - N/A Rain , Thunderstorm Heavy Thunderstorms and Rain
5:00 AM 62.6 °F 60.8 °F 94% 30.04 in 0.7 mi NE 8.1 mph - N/A Rain , Thunderstorm Heavy Thunderstorms and Rain
5:30 AM 62.6 °F 60.8 °F 94% 30.06 in 5.0 mi NNW 6.9 mph - N/A Rain , Thunderstorm Light Thunderstorms and Rain
6:00 AM 62.6 °F 60.8 °F 94% 30.06 in 6.2 mi NNW 8.1 mph - N/A Thunderstorm Overcast
6:30 AM 62.6 °F 59.0 °F 88% 30.06 in 6.2 mi NNW 6.9 mph - N/A Thunderstorm Thunderstorm
7:00 AM 62.6 °F 59.0 °F 88% 30.06 in 6.2 mi North 4.6 mph - N/A Thunderstorm Overcast
7:30 AM 62.6 °F 60.8 °F 94% 30.09 in 6.2 mi North 10.4 mph - N/A   Overcast
8:00 AM 62.6 °F 59.0 °F 88% 30.09 in 6.2 mi North 9.2 mph - N/A Rain Light Rain
8:30 AM 62.6 °F 59.0 °F 88% 30.09 in 6.2 mi Variable 3.5 mph - N/A   Mostly Cloudy
9:00 AM 64.4 °F 60.8 °F 88% 30.09 in 6.2 mi Variable 3.5 mph - N/A   Mostly Cloudy
9:30 AM 64.4 °F 62.6 °F 94% 30.12 in 6.2 mi Variable 2.3 mph - N/A   Mostly Cloudy
10:00 AM 64.4 °F 62.6 °F 94% 30.12 in 6.2 mi Variable 1.2 mph - N/A   Mostly Cloudy
10:30 AM 66.2 °F 62.6 °F 88% 30.12 in 6.2 mi Variable 3.5 mph - N/A   Mostly Cloudy
11:00 AM 66.2 °F 62.6 °F 88% 30.12 in 6.2 mi North 3.5 mph - N/A   Overcast
11:30 AM 68.0 °F 60.8 °F 78% 30.12 in 6.2 mi North 6.9 mph - N/A   Mostly Cloudy
12:00 PM 69.8 °F 62.6 °F 78% 30.12 in 6.2 mi NNE 5.8 mph - N/A   Mostly Cloudy
12:30 PM 69.8 °F 60.8 °F 73% 30.12 in 6.2 mi NE 6.9 mph - N/A   Mostly Cloudy
1:00 PM 69.8 °F 62.6 °F 78% 30.09 in 6.2 mi NNE 5.8 mph - N/A   Mostly Cloudy
1:30 PM 68.0 °F 62.6 °F 83% 30.09 in 6.2 mi NE 6.9 mph - N/A Rain , Thunderstorm Light Thunderstorms and Rain
2:00 PM 68.0 °F 62.6 °F 83% 30.09 in 6.2 mi NE 4.6 mph - N/A Thunderstorm Thunderstorm
2:30 PM 68.0 °F 62.6 °F 83% 30.09 in 6.2 mi NE 8.1 mph - N/A Thunderstorm Mostly Cloudy
3:00 PM 68.0 °F 60.8 °F 78% 30.09 in 6.2 mi North 8.1 mph - N/A Thunderstorm Thunderstorm
3:30 PM 66.2 °F 62.6 °F 88% 30.12 in 0.6 mi SSW 3.5 mph - N/A Rain , Thunderstorm Heavy Thunderstorms and Rain
4:00 PM 63 °F 61 °F 90% 30.14 in 0 mi SW 3.5 mph - - Rain Heavy Rain
4:00 PM 62.6 °F 60.8 °F 94% 30.12 in 0.4 mi Variable 3.5 mph - N/A Rain , Thunderstorm Heavy Thunderstorms and Rain
4:30 PM 62.6 °F 60.8 °F 94% 30.12 in 0.6 mi North 5.8 mph - N/A Rain , Thunderstorm Heavy Thunderstorms and Rain
5:00 PM 62.6 °F 60.8 °F 94% 30.12 in 5.0 mi North 5.8 mph - N/A Rain , Thunderstorm Thunderstorms and Rain
5:30 PM 60.8 °F 59.0 °F 94% 30.15 in 3.7 mi SSW 8.1 mph - N/A Rain Rain
6:00 PM 60.8 °F 60.8 °F 100% 30.12 in 6.2 mi SW 5.8 mph - N/A   Mostly Cloudy
6:30 PM 60.8 °F 59.0 °F 94% 30.15 in 6.2 mi NW 3.5 mph - N/A Rain Light Rain
7:00 PM 60.8 °F 59.0 °F 94% 30.12 in 6.2 mi WNW 9.2 mph - N/A Rain Light Rain
7:30 PM 60.8 °F 57.2 °F 88% 30.12 in 6.2 mi NNW 6.9 mph - N/A   Unknown
8:00 PM 60.8 °F 57.2 °F 88% 30.12 in 6.2 mi Variable 2.3 mph - N/A   Unknown
8:30 PM 59.0 °F 57.2 °F 94% 30.12 in 6.2 mi West 4.6 mph - N/A   Unknown
9:00 PM 59.0 °F 57.2 °F 94% 30.15 in 6.2 mi West 6.9 mph - N/A   Mostly Cloudy
9:30 PM 59.0 °F 55.4 °F 88% 30.15 in 6.2 mi West 8.1 mph - N/A   Partly Cloudy
10:00 PM 59.0 °F 55.4 °F 88% 30.15 in 6.2 mi North 4.6 mph - N/A   Scattered Clouds
10:30 PM 57.2 °F 55.4 °F 94% 30.15 in 6.2 mi WNW 4.6 mph - N/A   Unknown
11:00 PM 59.0 °F 55.4 °F 88% 30.15 in 6.2 mi WNW 6.9 mph - N/A   Mostly Cloudy
11:30 PM 59.0 °F 57.2 °F 94% 30.15 in 6.2 mi West 6.9 mph - N/A   Scattered Clouds